User: anonymous   Login
Location: Nairn
(57.5833°N, 3.8667°W)
Time: 23:04:31
(UTC+00:00)
Language:

N. Korean satellite - Orbit

View from above orbital plane
View from above orbital plane
View from above satellite
View from above satellite

Ground track
Ground track

The orbit data is extracted from the following two-line orbital elements,

1 39026U 12072A   21210.52854885  .00002516  00000-0  86612-4 0  9994
2 39026  97.2458 202.3780 0033869 232.4585 127.3578 15.30447186479469
Epoch (UTC): 29 July 2021 12:41:06
Eccentricity: 0.0033869
inclination: 97.2458°
perigee height: 451 km
apogee height: 497 km
right ascension of ascending node: 202.3780°
argument of perigee: 232.4585°
revolutions per day: 15.30447186
mean anomaly at epoch: 127.3578°
orbit number at epoch: 47946

The dashed part of the orbit path shows where the satellite is in the earth's shadow,  

DLR